WX2DX-2 Weather Reports


Display with metric or nautical units.
time (UTC)temp
F
wind
direction
speed
MPH
gust
MPH
rain 1hr
in
rain 24hr
in
rain mn
in
humidity
%
barometer
mb
20260502193032 46 323 4.0 9.0 0.00 0.28 0.03 68 1013.5
20260502191536 47 296 2.0 10.0 0.00 0.28 0.03 63 1013.6
20260502190030 48 30 1.0 5.0 0.00 0.28 0.03 60 1013.6
20260502184534 48 302 1.0 5.0 0.00 0.28 0.03 60 1013.7
20260502183029 48 355 1.0 5.0 0.00 0.28 0.03 61 1013.8
20260502181531 47 316 2.0 9.0 0.00 0.28 0.03 62 1013.9
20260502163033 47 32 5.0 13.0 0.00 0.28 0.03 61 1014.2
20260502161527 47 225 2.0 9.0 0.00 0.28 0.03 61 1014.2
20260502151521 48 288 3.0 7.0 0.00 0.28 0.03 61 1014.2
20260502123057 42 317 3.0 8.0 0.00 0.28 0.03 75 1014.8
20260502121555 41 335 1.0 5.0 0.00 0.28 0.03 79 1014.9
20260502120110 39 213 1.0 7.0 0.00 0.28 0.03 83 1014.9
20260502114556 38 261 3.0 6.0 0.00 0.28 0.03 85 1014.8
20260502113048 37 260 4.0 10.0 0.00 0.28 0.03 85 1014.7
20260502111550 37 295 2.0 8.0 0.00 0.28 0.03 88 1014.6
20260502110042 35 290 1.0 9.0 0.00 0.28 0.03 90 1014.5
20260502104547 34 275 2.0 9.0 0.00 0.28 0.03 92 1014.6
20260502103037 34 282 2.0 9.0 0.00 0.28 0.03 93 1014.8
20260502101533 33 292 2.0 7.0 0.00 0.28 0.03 93 1014.7
20260502091526 35 277 0.0 3.0 0.00 0.28 0.03 91 1013.9
20260502071510 37 309 3.0 8.0 0.00 0.28 0.03 91 1013.4
20260502070008 37 271 1.0 8.0 0.00 0.28 0.03 91 1013.3
20260502064509 38 321 1.0 9.0 0.00 0.28 0.03 90 1013.3
20260502063001 38 322 1.0 5.0 0.00 0.28 0.03 91 1013.3
20260502061600 39 317 3.0 9.0 0.01 0.28 0.03 89 1013.5
20260502060101 39 291 5.0 14.0 0.01 0.28 0.03 88 1013.4
20260502054554 40 323 2.0 13.0 0.02 0.28 0.03 90 1013.5
20260502053052 40 335 3.0 11.0 0.02 0.28 0.03 91 1013.4
20260502051619 41 291 2.0 8.0 0.01 0.27 0.02 91 1013.3
20260502050046 42 45 4.0 12.0 0.01 0.26 0.01 92 1013.3
20260502044543 42 252 3.0 13.0 0.06 0.26 0.01 94 1013.1
20260502043044 43 5 1.0 8.0 0.12 0.26 0.01 93 1012.9
20260502041539 43 348 2.0 4.0 0.12 0.26 0.01 94 1012.6
20260502040035 44 269 1.0 9.0 0.11 0.25 0.00 94 1012.6
20260502034544 44 271 4.0 10.0 0.06 0.20 0.20 94 1012.6
20260502033047 44 189 0.0 1.0 0.01 0.14 0.14 94 1012.3
20260502031538 44 163 0.0 2.0 0.01 0.14 0.14 94 1012.3
20260502030032 44 213 0.0 2.0 0.01 0.14 0.14 94 1012.5
20260502024532 44 42 0.0 1.0 0.01 0.14 0.14 94 1012.3
20260502023031 44 42 1.0 2.0 0.00 0.13 0.13 94 1012.3
20260502021555 44 42 0.0 2.0 0.00 0.13 0.13 94 1012.4
20260502020105 44 200 0.0 2.0 0.00 0.13 0.13 93 1012.0
20260502014552 44 200 0.0 1.0 0.00 0.13 0.13 92 1012.2
20260502013054 44 200 0.0 1.0 0.01 0.13 0.13 92 1012.0
20260502011552 45 242 0.0 2.0 0.01 0.13 0.13 92 1012.2
20260502010055 45 242 0.0 0.0 0.02 0.13 0.13 91 1012.0
20260502004550 45 242 0.0 1.0 0.02 0.13 0.13 90 1011.8
20260502003050 45 211 1.0 4.0 0.01 0.12 0.12 88 1011.8
20260502001549 46 11 0.0 2.0 0.01 0.12 0.12 90 1011.7
20260502000049 46 310 0.0 1.0 0.00 0.11 0.11 91 1011.5
20260501234554 47 281 0.0 2.0 0.00 0.11 0.11 90 1011.5
20260501233048 47 290 0.0 4.0 0.00 0.11 0.11 90 1011.4
20260501231557 47 322 1.0 5.0 0.00 0.11 0.11 90 1011.3
20260501230047 48 51 0.0 0.0 0.00 0.11 0.11 91 1011.2
20260501224547 48 51 0.0 0.0 0.00 0.11 0.11 90 1011.2
20260501223046 48 55 1.0 2.0 0.00 0.11 0.11 90 1011.1
20260501221546 48 348 0.0 3.0 0.01 0.11 0.11 90 1010.9
20260501220046 48 69 2.0 5.0 0.01 0.11 0.11 88 1011.0
20260501214557 48 77 1.0 3.0 0.01 0.11 0.11 88 1011.0
20260501213051 48 66 1.0 3.0 0.02 0.11 0.11 87 1011.1
20260501211544 48 36 0.0 2.0 0.02 0.10 0.10 87 1011.3
20260501210043 48 330 0.0 3.0 0.04 0.10 0.10 87 1011.2
20260501204543 48 317 1.0 4.0 0.05 0.10 0.10 91 1011.0
20260501203042 47 294 2.0 6.0 0.06 0.09 0.09 89 1011.2
20260501201547 47 105 0.0 5.0 0.07 0.08 0.08 89 1011.4
20260501200041 47 286 1.0 5.0 0.06 0.06 0.06 88 1011.1
20260501194552 48 319 2.0 5.0 0.05 0.05 0.05 88 1011.0